ANIK F1R

Last updated on Wed Jul 09 2025 00:02:43 GMT+0000 (Coordinated Universal Time)

1 28868U 05036A 25189.39885697 -.00000062 00000+0 00000+0 0 9993 2 28868 3.4285 80.9031 0003786 19.2817 222.6849 1.00271553 43003
UTC large
Height (km)
Speed (km/s)
/
Latitude / Longitude
Inclination (degrees)
Orbital Period (minutes)
Azimuth
Elevation
Range (km)
Doppler Factor

Next 0 passes for location: London (51.5072 / 0.1276)

Sorry there are no passes over London.